Theta_e
319 318 316 313 314 315 315 315 316 317 319 321 320 321 320 319 318 318 316 315 317 318 317 317 317 319 321 333 337 337 337 337 336 335 335 336 335 334 335 334 331 327 324 325
312 315 314 313 314 315 315 317 317 318 321 321 319 322 320 319 319 318 317 317 317 318 316 316 317 318 320 327 336 335 334 332 333 335 334 335 335 335 335 326 325 325 324 321
312 314 314 314 314 314 314 317 317 319 321 319 320 321 321 319 318 318 317 317 318 317 317 317 317 318 320 323 333 333 332 333 333 333 334 334 334 332 326 329 327 323 318 317
314 313 314 313 314 314 315 316 317 318 322 323 317 321 320 318 317 317 318 320 318 318 317 317 318 319 320 322 333 332 333 333 333 332 333 332 331 327 322 319 318 319 317 314
312 313 312 313 314 313 314 315 316 318 322 322 319 319 316 318 320 318 321 320 318 319 319 320 318 319 321 326 331 332 331 329 327 328 328 328 326 326 325 324 320 319 315 312
312 312 312 313 313 313 315 318 315 321 321 325 319 320 317 320 320 321 321 319 319 318 318 319 323 323 327 330 329 330 328 324 324 325 329 327 328 325 316 314 314 312 313 312
314 313 313 313 314 313 314 312 312 315 318 323 321 319 319 319 321 321 321 320 318 318 317 319 324 326 326 327 327 327 327 324 324 326 327 327 325 322 321 319 319 316 313 313
313 313 313 311 314 314 315 315 311 305 316 316 320 320 319 320 320 319 319 319 318 317 317 317 321 325 327 326 326 326 324 323 323 325 324 324 324 323 322 322 321 320 315 311
313 315 311 309 312 313 315 316 317 316 318 319 320 320 319 320 321 317 319 319 318 317 317 316 317 320 322 324 324 323 321 320 321 320 321 322 323 324 323 322 321 319 315 312
312 313 311 312 312 316 315 316 319 316 316 320 318 315 314 318 319 318 319 319 318 316 315 314 315 316 317 318 319 320 319 318 318 319 320 320 321 320 319 317 317 316 314 314
310 309 312 311 312 316 316 316 315 314 316 318 320 316 309 317 319 318 317 317 317 316 313 312 313 314 314 314 316 316 318 319 318 318 318 317 317 317 317 316 316 315 315 314
310 308 312 312 311 311 311 311 309 312 316 312 313 316 317 316 316 316 314 316 316 314 311 310 311 310 309 309 310 312 316 317 317 317 317 316 316 316 316 315 315 315 314 313
309 310 312 312 312 312 311 311 307 307 308 312 314 311 314 314 314 314 312 312 315 313 310 308 310 308 307 308 309 310 310 310 312 314 314 313 313 313 312 312 313 312 312 311
311 310 311 313 314 311 310 311 307 306 307 310 312 311 317 316 316 314 312 311 312 313 311 310 309 310 308 305 305 303 303 303 303 304 305 304 305 306 307 307 309 310 309 309
308 311 311 312 313 314 312 311 308 306 305 309 310 311 312 316 316 314 311 311 309 311 309 307 308 305 306 304 303 303 303 303 302 302 301 301 301 301 301 300 300 300 300 300
307 310 311 311 311 309 309 309 308 308 307 306 306 307 306 311 313 312 311 311 311 308 308 305 303 302 301 301 301 302 301 301 301 300 300 300 300 299 299 299 299 299 298 298
307 308 310 312 311 312 312 311 310 309 307 308 307 307 313 316 316 314 312 311 311 307 305 303 301 301 301 301 301 301 301 300 300 300 299 299 299 298 298 297 297 297 297 296
306 307 310 311 313 315 312 312 310 310 310 307 307 309 315 316 316 314 312 311 309 307 305 302 301 301 302 302 301 301 300 300 300 299 299 298 298 297 297 297 297 297 297 296
305 308 309 310 314 312 314 312 311 312 312 310 310 311 313 313 312 314 312 312 310 307 305 303 302 302 302 302 301 301 300 300 299 299 298 298 298 298 297 297 297 296 296 295
305 306 309 309 313 315 313 312 310 309 310 309 310 311 311 309 313 313 311 311 309 308 306 303 303 303 302 301 301 300 300 300 299 298 298 298 297 297 297 297 296 295 294 293
306 305 308 309 311 312 311 310 309 311 311 308 309 310 310 312 312 308 310 310 310 308 306 305 303 302 302 302 301 300 300 299 299 298 298 298 298 297 297 296 295 294 293 292
308 307 307 307 311 314 310 308 310 309 309 308 308 308 311 311 308 308 310 310 308 307 305 304 302 302 302 302 301 300 299 300 299 298 298 298 298 297 296 295 293 292 292 292
310 307 308 309 311 309 308 310 307 307 308 307 307 307 310 309 309 308 307 308 308 307 305 303 302 302 302 301 301 300 300 298 298 297 297 297 296 296 294 292 292 292 291 291
306 306 308 308 309 309 308 306 307 307 308 307 307 307 308 309 308 308 306 307 307 306 305 303 302 301 300 301 301 301 300 298 298 297 297 296 295 294 293 291 292 291 291 290
308 308 309 308 310 310 309 307 307 308 308 307 307 308 309 308 307 307 306 306 307 306 305 304 303 302 301 301 301 301 300 298 297 297 295 294 293 292 291 291 291 291 290 289
305 307 312 311 310 310 310 307 306 308 309 307 307 309 308 308 308 306 306 307 307 305 305 303 303 302 302 301 301 301 300 299 298 296 295 294 292 290 291 290 289 288 288 287
Wind_Speed
1 3 3 6 6 4 2 3 4 4 2 2 2 3 2 4 6 9 9 9 11 13 11 16 19 23 28 11 13 22 25 22 24 28 27 27 27 33 27 28 29 27 30 30
3 5 8 7 0 1 1 2 4 6 5 4 4 2 3 4 1 3 8 11 11 12 15 16 21 18 23 20 8 16 20 20 16 25 23 22 20 25 28 26 29 26 20 29
5 4 5 1 1 3 2 4 3 5 6 3 5 2 4 4 3 5 7 9 12 10 12 13 18 14 17 19 3 8 13 14 18 20 22 16 12 15 16 22 21 21 23 24
4 1 3 2 2 3 3 7 5 3 3 2 3 4 3 5 8 4 7 12 11 13 11 9 14 14 15 11 2 10 13 18 18 18 20 18 19 6 2 19 18 20 18 20
5 4 2 2 4 3 8 3 6 3 3 2 4 3 5 5 7 9 15 14 14 13 13 13 11 14 14 8 10 16 19 19 15 13 14 16 19 19 20 20 14 15 17 17
5 0 4 4 2 4 5 2 7 5 3 2 4 3 4 4 4 6 12 13 14 14 14 13 12 6 5 13 15 19 20 21 17 14 11 21 29 31 30 25 26 17 15 11
2 3 2 2 2 3 8 5 2 4 4 4 1 2 6 2 4 5 11 11 13 12 14 15 14 11 10 13 14 17 22 19 17 13 16 22 25 34 36 31 23 20 20 17
4 4 5 2 3 2 1 5 4 5 1 4 4 2 5 4 6 3 6 8 10 13 12 14 13 13 15 16 18 17 15 16 14 20 19 16 15 18 23 23 23 18 21 20
4 3 1 2 2 4 1 1 3 5 3 3 3 2 3 4 3 3 7 7 9 10 12 13 16 19 18 19 18 19 17 14 15 13 11 16 17 15 14 13 12 13 16 18
5 1 4 3 2 1 2 5 2 3 2 2 4 3 4 4 4 3 5 6 6 8 9 9 12 14 18 21 23 22 22 22 21 20 17 18 17 15 15 14 15 13 12 12
3 3 2 3 4 6 1 1 1 3 4 4 1 5 5 6 5 6 1 1 3 6 7 7 11 14 17 21 24 24 24 26 24 23 21 21 20 19 18 16 17 13 11 11
3 4 3 5 2 2 4 5 5 4 3 1 3 5 3 7 7 7 5 2 3 6 6 6 10 12 15 18 20 22 25 25 23 22 22 22 20 19 17 15 13 13 14 12
6 2 1 5 4 3 3 4 4 4 2 4 5 5 3 4 7 6 7 5 3 6 6 5 8 10 12 13 18 21 21 21 21 22 23 24 22 22 21 18 20 18 16 18
5 3 5 6 4 4 4 5 5 6 3 3 5 3 5 7 7 7 7 7 6 6 7 6 6 7 9 12 14 15 17 20 23 25 26 27 26 27 26 24 22 22 20 18
5 5 5 6 7 3 6 6 8 8 6 6 4 7 7 13 12 10 9 8 8 9 8 6 7 6 11 13 14 18 20 21 24 25 26 26 25 25 25 26 24 23 23 23
2 2 3 4 4 8 6 9 10 9 6 7 5 9 7 8 8 8 10 11 10 8 9 7 5 10 15 18 19 21 23 24 24 27 26 25 25 24 24 24 24 23 21 20
7 5 3 4 3 3 6 9 10 6 6 10 9 10 6 4 12 13 13 12 13 12 11 10 9 14 18 24 25 24 24 23 23 24 22 22 21 22 21 20 19 18 16 14
7 6 3 3 2 2 5 1 6 11 6 8 5 6 11 12 14 10 11 14 12 13 13 10 16 19 22 23 23 25 25 24 23 23 22 21 20 19 19 18 18 18 16 12
4 5 3 4 3 6 4 5 6 7 7 11 10 7 8 6 5 4 11 14 16 15 18 22 26 29 29 28 26 25 23 21 21 20 19 18 18 19 18 17 17 16 14 11
5 5 4 3 4 7 5 3 5 5 5 8 14 10 9 8 5 9 13 13 11 21 24 25 31 32 33 33 32 31 28 26 24 22 21 20 20 20 19 17 15 13 12 12
4 2 6 3 4 8 7 6 4 4 7 6 11 10 10 10 10 3 12 10 21 25 26 30 33 31 35 35 35 32 32 31 27 23 22 21 19 17 15 14 13 13 12 13
9 8 5 3 2 8 9 5 8 7 2 6 7 9 15 13 8 6 10 12 12 17 23 31 28 28 35 37 37 33 33 30 27 25 24 22 19 16 14 13 13 11 12 13
5 8 8 10 9 4 12 2 6 6 6 6 7 7 14 10 8 8 8 11 15 23 25 30 30 29 36 37 38 34 33 32 30 28 26 24 20 18 17 17 17 16 15 14
4 5 5 4 8 9 10 5 5 7 7 6 6 8 10 8 9 8 7 8 11 21 24 28 27 26 29 38 37 36 34 34 32 29 27 24 23 20 18 16 16 16 16 15
5 13 8 4 5 3 7 13 6 7 5 6 5 8 13 9 8 8 7 9 15 21 24 28 29 27 31 38 37 35 37 36 33 30 28 25 23 22 20 17 16 15 12 11
6 8 7 5 10 6 7 10 10 9 9 9 9 6 6 10 11 9 8 15 19 20 24 25 27 27 31 36 37 35 38 38 34 32 30 28 25 22 21 19 16 10 9 9
Wind_Direction
252 83 233 224 206 205 212 241 263 265 264 332 174 151 308 322 28 8 341 333 331 323 334 337 333 342 352 13 199 196 176 181 181 182 186 193 180 197 190 174 171 184 177 175
18 225 224 215 220 175 158 242 295 290 265 196 154 155 262 297 313 16 350 328 317 324 332 334 331 349 354 8 162 184 167 169 182 182 176 181 178 180 167 158 160 166 168 179
166 238 185 172 65 31 270 195 230 233 321 27 104 302 268 278 290 344 358 325 328 327 329 324 322 350 342 1 74 163 170 171 182 183 181 165 119 156 155 158 158 158 183 178
220 222 168 213 225 143 281 211 240 272 38 249 62 283 302 321 322 346 328 345 337 336 328 309 313 325 321 351 121 142 161 165 180 183 184 174 155 106 206 143 150 154 169 184
251 174 172 200 212 169 239 228 264 221 184 52 331 62 264 344 334 343 349 342 333 330 332 324 304 300 306 325 157 139 137 139 136 148 177 170 157 161 166 170 158 163 164 175
221 119 157 211 266 197 296 18 25 55 82 37 285 125 291 342 322 343 342 339 333 338 343 346 318 286 53 108 128 128 133 121 102 94 146 158 164 165 150 150 151 149 147 151
37 215 219 161 336 344 43 49 343 11 14 219 324 55 251 336 58 341 334 337 337 352 357 2 18 61 76 99 103 126 129 121 96 95 118 158 160 162 162 162 167 176 182 183
153 306 175 192 193 199 338 136 152 188 174 265 327 299 277 108 105 324 332 347 357 2 5 12 13 48 54 73 86 108 113 113 134 123 120 128 134 141 160 167 179 188 195 196
157 253 142 168 162 127 174 54 161 103 27 52 248 257 301 111 145 351 6 10 16 14 9 7 15 37 47 67 84 95 97 106 112 122 128 138 152 146 131 145 149 162 191 193
196 142 211 142 102 130 156 162 57 13 94 278 292 260 236 279 99 43 10 6 20 35 20 10 20 43 59 70 85 102 103 100 103 115 125 122 123 133 129 132 125 132 146 159
134 101 256 117 199 182 140 255 133 130 142 166 274 265 209 199 140 147 188 30 24 56 42 24 30 41 59 80 92 96 101 104 103 106 111 113 117 116 118 119 126 141 142 152
167 140 201 211 266 211 190 189 141 122 234 172 149 275 153 171 137 153 169 177 95 78 64 44 49 63 72 75 80 90 104 108 113 115 117 118 124 127 126 126 127 137 138 133
173 180 91 344 351 343 208 208 144 121 83 204 144 259 149 167 135 172 157 167 147 122 105 66 65 71 74 83 99 105 110 113 119 120 120 118 118 116 116 122 127 128 129 128
104 152 181 193 204 147 187 191 177 140 135 202 225 213 212 199 188 173 177 163 166 153 133 123 101 104 101 99 106 101 107 115 119 118 118 115 114 112 109 108 109 117 126 126
127 201 186 239 247 238 214 206 192 192 188 171 256 203 211 204 194 183 180 161 160 165 158 157 152 149 139 133 131 129 128 126 126 123 120 115 114 113 114 113 116 116 116 119
166 222 192 284 262 217 241 231 218 210 206 252 226 256 215 200 130 158 180 172 175 180 164 162 157 144 148 146 142 137 134 135 135 123 119 120 121 121 121 120 117 118 117 122
153 147 128 255 350 354 291 222 200 189 191 192 210 224 156 155 176 185 185 182 179 176 171 169 170 170 166 156 152 149 144 142 136 130 131 132 131 128 128 124 124 127 128 124
147 138 133 211 12 248 242 228 191 200 197 207 205 194 180 182 193 178 186 180 178 174 173 174 172 174 174 166 160 154 153 152 146 142 144 143 140 128 126 134 132 128 129 126
150 135 137 156 202 294 270 207 170 172 262 197 195 196 190 124 89 241 195 187 181 179 178 178 177 173 173 172 169 165 162 159 156 154 153 152 151 149 150 147 143 136 132 132
76 78 118 142 175 214 235 190 142 108 292 200 178 174 156 133 170 233 188 186 180 174 174 174 179 178 176 177 174 172 172 171 171 169 166 165 162 156 150 147 145 142 142 141
134 80 172 157 225 283 230 171 147 106 237 163 174 170 156 184 198 197 169 174 178 175 174 178 177 179 183 180 179 177 178 180 178 173 170 169 169 167 163 156 153 151 150 152
162 148 175 123 177 268 159 85 166 208 195 164 170 171 184 200 154 153 169 169 164 168 166 174 175 182 186 184 183 181 182 182 176 175 172 172 172 171 168 168 160 161 162 159
183 182 176 179 204 224 197 184 205 173 158 185 165 190 186 173 187 172 176 173 175 173 174 177 178 182 186 187 189 184 187 177 173 172 171 171 172 173 172 169 165 164 168 169
247 157 169 112 224 219 209 240 219 184 185 180 180 173 165 177 178 189 165 171 173 175 177 178 177 180 186 192 194 195 184 180 178 175 173 173 173 172 173 174 174 172 172 172
186 154 161 256 276 138 252 217 207 203 190 169 171 180 189 172 182 181 179 175 179 179 178 180 184 187 191 194 197 195 187 183 182 179 177 176 176 174 172 175 178 178 180 189
184 161 167 200 211 170 218 196 187 187 194 197 174 179 201 185 186 175 191 188 180 180 180 184 190 191 193 194 196 194 191 188 185 180 182 181 179 177 175 170 160 164 169 164